MDT,Max TemperatureF,Mean TemperatureF,Min TemperatureF,Max Dew PointF,MeanDew PointF,Min DewpointF,Max Humidity, Mean Humidity, Min Humidity, Max Sea Level PressureIn, Mean Sea Level PressureIn, Min Sea Level PressureIn, Max VisibilityMiles, Mean VisibilityMiles, Min VisibilityMiles, Max Wind SpeedMPH, Mean Wind SpeedMPH, Max Gust SpeedMPH,PrecipitationIn, CloudCover, Events, WindDirDegrees
2011-10-1,86,64,41,34,28,20,40,27,14,30.15,29.99,29.91,10,10,10,22,10,31,0.00,0,,214
2011-10-2,84,68,52,37,34,30,47,31,15,30.16,29.98,29.88,10,10,10,22,12,31,T,0,,232
2011-10-3,82,64,46,37,35,34,61,40,18,30.21,30.00,29.85,10,10,10,15,8,18,0.00,0,,225
2011-10-4,81,69,57,42,38,34,51,35,19,30.01,29.80,29.66,10,10,4,24,16,35,T,2,,212
2011-10-5,72,62,51,45,37,28,68,45,22,29.84,29.58,29.43,10,10,10,30,16,43,T,3,Rain,214
2011-10-6,64,49,34,46,40,36,89,66,43,29.62,29.47,29.31,10,8,2,25,11,33,0.75,5,Rain,193
2011-10-7,52,43,34,37,33,29,92,70,48,29.97,29.75,29.48,10,10,8,38,26,52,0.11,7,Rain,226
2011-10-8,41,39,37,38,36,34,92,86,79,30.30,30.17,29.92,10,10,6,28,13,36,0.19,8,Rain,19
2011-10-9,49,42,35,37,34,32,92,74,56,30.30,30.17,29.91,10,10,8,12,7,21,0.06,7,Rain,226
2011-10-10,61,49,36,36,31,28,79,55,31,29.95,29.86,29.77,10,10,10,25,13,35,0.00,2,,231
2011-10-11,63,54,44,39,36,33,71,53,34,29.84,29.75,29.65,10,10,7,30,17,36,0.02,3,Rain,244
2011-10-12,60,47,33,36,27,17,85,53,21,30.09,30.03,29.91,10,10,10,16,8,23,0.00,1,,271
2011-10-13,62,49,36,31,25,22,70,47,23,30.06,29.99,29.89,10,10,10,16,8,,0.00,2,,278
2011-10-14,63,48,33,31,29,24,89,60,30,30.12,30.03,29.95,10,10,10,10,5,17,0.00,3,,55
2011-10-15,79,58,37,37,33,27,82,50,17,30.11,29.91,29.74,10,10,10,25,15,38,0.00,1,,265
2011-10-16,55,47,38,37,35,32,85,66,46,30.15,30.04,29.91,10,10,10,13,7,,0.00,3,,62
2011-10-17,52,44,36,43,34,25,92,66,39,30.32,30.16,29.88,10,9,4,23,8,33,0.25,6,Rain,339
2011-10-18,54,42,30,33,27,22,89,59,28,30.44,30.35,30.29,10,10,10,15,6,24,0.00,3,,283
2011-10-19,62,44,26,32,26,23,85,54,23,30.27,30.07,29.91,10,10,10,15,7,25,0.00,0,,194
2011-10-20,66,50,33,30,27,22,82,51,19,30.05,29.98,29.87,10,10,10,16,8,,0.00,0,,251
2011-10-21,65,48,30,36,30,26,78,52,25,30.18,30.11,30.05,10,10,10,14,8,17,0.00,3,,263
2011-10-22,63,52,40,36,31,25,76,50,23,30.14,30.07,30.00,10,10,10,16,10,22,0.00,2,,257
2011-10-23,68,52,36,30,27,24,70,45,20,30.15,30.03,29.94,10,10,10,23,12,33,0.00,0,,252
2011-10-24,73,54,35,36,27,21,70,42,14,29.99,29.85,29.68,10,10,10,29,15,41,0.00,0,,241
2011-10-25,40,36,31,36,29,25,89,79,69,30.31,30.15,29.90,10,8,1,14,8,,0.06,8,Rain-Snow,40
2011-10-26,39,30,21,26,21,17,85,65,44,30.33,30.25,30.11,10,10,10,13,7,,0.00,4,,340
2011-10-27,49,34,19,18,16,13,77,50,23,30.22,30.14,30.04,10,10,10,18,11,26,0.00,0,,236
2011-10-28,54,36,17,19,13,8,77,47,16,30.36,30.21,30.03,10,10,10,20,12,29,0.00,0,,236
2011-10-29,60,41,22,28,15,7,81,49,16,30.17,29.97,29.83,10,10,10,27,15,36,0.00,0,,239
2011-10-30,63,42,21,28,22,19,88,54,20,30.23,30.13,30.00,10,10,10,22,10,29,0.00,0,,251
2011-10-31,66,53,40,36,26,22,76,49,22,30.02,29.90,29.76,10,10,10,28,17,37,0.00,1,,242